Total_Precipitation_Accumulation
0.55 0.56 0.55 0.54 0.54 0.56 0.62 0.63 0.66 0.67 0.69 0.70 0.73 0.76 0.81 0.85 0.91 0.95 1.00 1.09 1.14 1.18 1.24 1.35 1.46 1.59 1.58 1.49 1.54 1.64 1.78 1.88 1.69 1.66 1.63 1.45 1.35 1.22 1.11 1.05 0.93 0.87 0.75
0.50 0.51 0.53 0.50 0.47 0.48 0.49 0.50 0.53 0.57 0.60 0.61 0.64 0.66 0.71 0.77 0.86 0.96 1.02 1.07 1.09 1.10 1.14 1.24 1.30 1.37 1.47 1.43 1.38 1.39 1.56 1.73 1.72 1.73 1.85 1.78 1.56 1.40 1.29 1.17 0.97 0.83 0.79
0.50 0.50 0.48 0.49 0.50 0.47 0.41 0.39 0.40 0.44 0.51 0.50 0.50 0.53 0.59 0.69 0.80 0.87 0.92 0.96 1.04 1.12 1.09 1.09 1.11 1.18 1.37 1.50 1.49 1.46 1.51 1.62 1.74 1.74 1.86 1.91 1.70 1.50 1.48 1.33 1.17 1.15 0.87
0.46 0.45 0.43 0.42 0.42 0.44 0.41 0.38 0.36 0.38 0.43 0.46 0.48 0.53 0.57 0.63 0.70 0.74 0.74 0.75 0.77 0.86 0.90 0.90 0.88 0.90 1.08 1.35 1.44 1.55 1.60 1.59 1.70 1.75 1.85 1.95 1.98 1.78 1.70 1.56 1.43 1.33 1.14
0.47 0.44 0.43 0.42 0.38 0.36 0.34 0.32 0.31 0.31 0.31 0.37 0.42 0.49 0.54 0.56 0.54 0.56 0.60 0.56 0.55 0.55 0.57 0.61 0.64 0.67 0.69 0.82 1.03 1.30 1.49 1.58 1.62 1.73 1.82 1.91 1.94 1.96 1.72 1.59 1.53 1.51 1.43
0.38 0.37 0.39 0.40 0.38 0.38 0.32 0.28 0.28 0.28 0.31 0.35 0.38 0.39 0.42 0.40 0.43 0.44 0.45 0.43 0.41 0.40 0.41 0.42 0.42 0.42 0.44 0.51 0.59 0.80 1.06 1.31 1.55 1.72 1.79 1.83 1.88 1.93 1.89 1.77 1.67 1.57 1.56
0.30 0.32 0.35 0.38 0.41 0.39 0.30 0.28 0.27 0.28 0.31 0.35 0.37 0.39 0.39 0.42 0.36 0.35 0.38 0.36 0.35 0.36 0.38 0.39 0.31 0.27 0.32 0.39 0.44 0.49 0.62 0.76 0.94 1.32 1.59 1.63 1.70 1.79 1.96 1.93 1.85 1.82 1.77
0.33 0.37 0.39 0.39 0.42 0.42 0.36 0.34 0.35 0.36 0.36 0.39 0.41 0.41 0.42 0.40 0.34 0.30 0.29 0.28 0.34 0.39 0.37 0.38 0.36 0.32 0.32 0.38 0.45 0.47 0.44 0.49 0.57 0.70 0.89 1.06 1.27 1.59 1.83 1.95 2.06 2.12 2.16
0.38 0.43 0.44 0.44 0.45 0.46 0.45 0.46 0.49 0.50 0.44 0.40 0.44 0.47 0.47 0.46 0.38 0.31 0.30 0.29 0.35 0.41 0.39 0.39 0.41 0.37 0.32 0.27 0.35 0.45 0.45 0.45 0.46 0.52 0.60 0.77 0.93 1.13 1.40 1.61 1.75 1.92 2.20
0.38 0.40 0.40 0.46 0.51 0.53 0.56 0.60 0.62 0.64 0.57 0.50 0.48 0.52 0.53 0.55 0.45 0.31 0.29 0.34 0.40 0.45 0.46 0.45 0.41 0.36 0.31 0.26 0.31 0.41 0.44 0.44 0.48 0.54 0.54 0.55 0.61 0.72 0.91 1.11 1.26 1.47 1.72
0.43 0.45 0.46 0.50 0.56 0.59 0.68 0.75 0.77 0.75 0.72 0.66 0.61 0.60 0.63 0.58 0.48 0.31 0.30 0.36 0.45 0.55 0.55 0.53 0.52 0.41 0.30 0.27 0.30 0.37 0.39 0.44 0.54 0.62 0.67 0.69 0.68 0.66 0.71 0.85 1.03 1.11 1.22
0.52 0.52 0.55 0.63 0.56 0.54 0.73 0.81 0.86 0.88 0.83 0.77 0.78 0.74 0.71 0.67 0.52 0.39 0.31 0.36 0.46 0.63 0.69 0.68 0.63 0.49 0.38 0.32 0.31 0.31 0.32 0.35 0.45 0.56 0.64 0.71 0.72 0.66 0.66 0.75 0.94 1.10 1.10
0.65 0.67 0.68 0.68 0.68 0.72 0.83 0.88 0.89 0.92 0.91 0.84 0.86 0.84 0.81 0.80 0.72 0.47 0.38 0.39 0.43 0.58 0.68 0.68 0.62 0.50 0.45 0.41 0.40 0.37 0.33 0.36 0.44 0.51 0.56 0.65 0.69 0.67 0.70 0.81 0.96 1.12 1.15
0.76 0.79 0.82 0.84 0.82 0.85 0.97 0.99 0.98 0.98 0.99 0.93 0.91 0.90 0.88 0.89 0.89 0.78 0.62 0.54 0.52 0.54 0.60 0.66 0.65 0.59 0.52 0.51 0.51 0.45 0.41 0.45 0.51 0.54 0.57 0.65 0.75 0.79 0.80 0.81 0.91 1.02 1.12
0.90 0.89 0.91 0.97 1.03 1.05 1.05 1.04 1.00 1.02 0.96 0.93 0.93 0.90 0.90 0.89 0.81 0.73 0.72 0.72 0.71 0.69 0.72 0.80 0.84 0.77 0.70 0.68 0.68 0.66 0.64 0.61 0.57 0.60 0.65 0.71 0.78 0.82 0.83 0.88 0.92 0.97 0.95
1.04 1.01 1.00 0.99 1.04 1.06 1.05 0.92 0.80 0.75 0.67 0.61 0.63 0.66 0.67 0.63 0.60 0.58 0.58 0.60 0.64 0.72 0.76 0.83 0.93 0.97 0.91 0.84 0.81 0.79 0.78 0.71 0.66 0.68 0.72 0.75 0.78 0.81 0.83 0.91 0.98 0.97 0.94
1.02 1.02 0.99 0.98 1.01 1.02 1.01 0.99 0.92 0.79 0.67 0.58 0.54 0.51 0.52 0.53 0.55 0.55 0.57 0.60 0.61 0.67 0.73 0.83 0.94 1.00 1.04 1.01 0.93 0.85 0.82 0.77 0.74 0.76 0.79 0.82 0.82 0.86 0.88 0.91 0.96 0.98 0.97
0.93 0.92 0.89 0.89 0.91 0.93 0.94 0.98 1.02 0.96 0.90 0.81 0.68 0.59 0.50 0.47 0.50 0.55 0.60 0.65 0.67 0.67 0.73 0.85 0.96 1.01 1.06 1.07 1.00 0.97 0.92 0.86 0.81 0.82 0.84 0.87 0.87 0.89 0.91 0.91 0.92 0.93 0.95
0.90 0.93 0.93 0.93 0.91 0.88 0.91 0.97 1.00 0.97 0.96 0.93 0.84 0.73 0.63 0.57 0.57 0.62 0.63 0.66 0.71 0.73 0.76 0.90 0.99 1.03 1.02 1.00 0.99 0.98 0.91 0.86 0.85 0.86 0.88 0.89 0.89 0.91 0.93 0.96 0.96 0.99 0.97
0.89 0.90 0.95 0.93 0.90 0.87 0.91 0.98 1.00 1.00 1.00 1.01 1.00 0.86 0.73 0.68 0.71 0.74 0.69 0.69 0.70 0.71 0.75 0.86 0.96 1.00 0.98 0.95 0.93 0.89 0.87 0.86 0.86 0.87 0.88 0.87 0.89 0.90 0.87 0.91 0.96 0.94 0.94
0.96 0.91 0.88 0.84 0.83 0.82 0.87 0.94 1.00 1.00 0.97 0.96 0.94 0.77 0.66 0.64 0.68 0.69 0.68 0.68 0.67 0.65 0.72 0.84 0.91 0.92 0.89 0.86 0.87 0.82 0.80 0.82 0.82 0.81 0.85 0.89 0.91 0.90 0.84 0.84 0.86 0.86 0.85
1.02 0.95 0.84 0.78 0.77 0.83 0.86 0.91 0.96 0.91 0.86 0.86 0.85 0.72 0.62 0.63 0.65 0.65 0.63 0.62 0.60 0.58 0.62 0.71 0.80 0.83 0.80 0.77 0.79 0.81 0.81 0.79 0.82 0.82 0.82 0.84 0.87 0.85 0.82 0.83 0.84 0.86 0.88
1.02 0.99 0.91 0.82 0.75 0.77 0.80 0.84 0.85 0.81 0.77 0.75 0.75 0.69 0.65 0.67 0.62 0.57 0.56 0.55 0.56 0.57 0.58 0.63 0.69 0.72 0.71 0.70 0.73 0.78 0.78 0.75 0.75 0.79 0.83 0.83 0.83 0.78 0.77 0.78 0.76 0.79 0.82
0.96 0.94 0.90 0.81 0.71 0.70 0.75 0.81 0.81 0.78 0.78 0.74 0.67 0.63 0.62 0.65 0.61 0.54 0.52 0.53 0.55 0.55 0.55 0.59 0.59 0.59 0.62 0.65 0.66 0.67 0.66 0.63 0.63 0.68 0.71 0.76 0.79 0.75 0.74 0.74 0.71 0.74 0.85
0.84 0.83 0.84 0.78 0.68 0.64 0.72 0.81 0.80 0.75 0.72 0.67 0.61 0.60 0.59 0.59 0.60 0.59 0.57 0.56 0.55 0.55 0.50 0.52 0.56 0.55 0.56 0.56 0.56 0.56 0.52 0.50 0.49 0.53 0.57 0.64 0.71 0.74 0.74 0.75 0.77 0.81 0.89
0.78 0.77 0.76 0.73 0.66 0.62 0.67 0.76 0.76 0.71 0.68 0.62 0.54 0.53 0.56 0.57 0.59 0.60 0.58 0.54 0.53 0.51 0.48 0.49 0.52 0.52 0.49 0.49 0.46 0.41 0.37 0.35 0.37 0.42 0.44 0.51 0.62 0.70 0.71 0.74 0.75 0.78 0.82